Location: Ferintosh
(52.7647°N, 112.9692°W)
Time: 00:44:06
(UTC+00:00)

S-56A Canister/Altair - Pass Details

Date: 27 May 2024
Orbit: 637 x 2489 km, 38.9° (Epoch: 19 June)

Event Time Altitude Azimuth Distance (km) Brightness Sun altitude
Rises 16:19:47 0° 266° (W) 5,576 11.5 42.3°
Reaches altitude 10° 16:24:25 10° 257° (WSW) 4,282 11.1 42.9°
Maximum altitude 16:33:07 28° 205° (SSW) 2,479 10.4 44.1°
Drops below altitude 10° 16:39:30 10° 149° (SSE) 3,071 11.4 45.0°
Sets 16:42:15 0° 137° (SE) 3,793 11.8 45.4°
